パンスターズ彗星

394P/PanSTARRS (2010)

English version
Home page
Updated on May 17, 2020

---------------------------------------------------------------------

・ プロフィール

符号 394P/2011 GN5
発見日 2011年4月2日
発見光度 19.3等
発見者 Mount Lemmon Survey

・ 軌道要素

Epoch 2010 Nov. 20.0 TT = JDT 2455520.5                                         
T 2010 Nov. 12.81881 TT                                 Spoto                   
q   2.7415234            (2000.0)            P               Q                  
n   0.10903691     Peri.   54.37298     -0.87889309     -0.45387892             
a   4.3393068      Node    98.22357     +0.37550684     -0.84804468             
e   0.3682117      Incl.    8.52801     +0.29417943     -0.27352173             
P   9.04                                                                        
From 94 observations 2002 Apr. 1-2020 Apr. 1, mean residual 0".9.               
     Nongravitational parameters Y1 = +0.03, Y2 = -0.0017, Y3 = -0.0902.        

・ 光度変化

        m1 = 14.0 + 5 logΔ + 10.0 log r

---------------------------------------------------------------------

軌道要素はM.P.E.C. 2020-G64に掲載されたものです。
光度グラフはComet for Windowsで作成したものです。

---------------------------------------------------------------------

Copyright(C) Seiichi Yoshida (comet@aerith.net). All rights reserved.